Lid_Strength_Index
4 5 7 8 13 14 16 13 13 12 12 13 12 10 9 12 10 13 9 6 5 5 4 3 1 1 1 2 2 2 1 1 1 1 1 1 1 0 0 0 -1 -2 -2 -2 -2 -1 -1 -1 -1
6 5 8 11 15 18 17 14 13 12 11 11 12 14 13 13 12 9 7 6 5 5 4 3 2 2 2 2 2 2 2 2 2 2 2 2 2 2 2 1 1 1 -1 -1 -2 -2 -2 -1 -1
8 6 10 13 17 17 16 14 14 12 11 11 13 13 14 13 11 9 8 6 6 6 4 3 2 2 2 2 2 2 3 3 2 2 2 2 2 2 2 2 2 2 1 1 0 -0 -1 -1 -1
8 9 12 15 17 15 14 14 12 12 12 12 13 14 12 10 8 10 7 7 7 7 5 3 2 2 2 2 2 2 3 3 2 3 2 2 2 2 2 2 2 2 2 2 2 2 2 2 1
10 13 15 17 16 15 14 12 11 12 12 13 12 14 13 10 7 8 8 7 8 8 7 6 3 3 3 3 2 2 2 3 2 2 2 2 1 2 2 1 1 1 1 1 1 1 2 3 2
11 14 17 18 17 16 14 12 12 12 13 13 13 12 11 10 7 7 7 9 8 8 7 7 4 3 3 3 3 2 2 2 2 3 3 3 3 3 3 2 2 2 2 2 2 2 2 2 2
12 15 17 18 17 15 13 13 13 13 12 13 11 13 12 10 8 8 8 8 9 9 9 8 8 6 4 3 3 2 3 3 3 4 5 5 5 5 4 4 3 3 3 3 3 3 2 2 3
12 14 17 17 17 16 14 14 13 13 14 12 12 13 13 11 9 9 9 9 10 10 11 11 11 10 8 7 4 4 4 5 5 6 6 7 7 7 6 6 5 4 4 4 4 3 3 4 4
12 15 17 17 16 15 14 15 14 14 14 14 13 11 10 10 9 10 11 11 11 10 11 11 11 11 10 10 8 8 7 7 7 8 8 10 11 10 10 7 6 6 5 5 4 4 5 5 6
13 16 15 16 16 16 15 15 15 15 15 15 13 11 10 10 10 11 12 12 12 12 12 11 11 11 11 9 11 11 10 11 12 11 11 11 12 11 10 9 7 7 7 7 6 6 7 8 9
15 16 15 15 14 14 15 15 14 15 15 14 14 12 11 11 11 11 12 12 11 11 11 11 11 11 11 12 12 12 12 12 12 12 11 12 12 12 12 12 12 12 9 11 10 10 10 10 10
16 14 14 13 13 14 15 14 15 15 14 13 13 11 11 11 11 11 11 11 11 11 10 10 10 11 11 11 12 12 12 12 12 12 11 12 12 12 12 13 12 12 12 12 12 11 11 11 10
15 14 13 13 13 14 13 15 15 15 13 13 11 10 11 11 11 11 10 10 10 11 11 11 11 11 11 11 12 12 12 12 12 12 11 11 12 13 12 13 12 13 12 12 12 12 11 11 11
14 14 14 13 13 13 14 15 15 15 14 14 11 11 11 11 11 11 11 10 10 10 10 10 10 10 10 11 12 12 12 12 12 12 12 11 12 12 12 13 13 13 12 12 12 12 12 12 11
14 16 15 14 14 14 14 15 15 14 14 14 13 11 10 10 10 10 9 10 9 9 10 10 10 10 11 11 11 12 12 11 12 12 12 12 11 12 13 13 13 13 12 12 12 12 12 12 12
16 16 18 15 14 14 15 16 14 14 15 14 14 13 11 10 10 10 9 9 9 9 10 10 9 10 11 11 12 12 12 12 13 12 12 12 12 12 13 13 13 13 12 12 13 13 13 13 13
17 21 18 17 14 15 16 16 14 14 15 14 14 14 13 12 10 10 9 9 9 9 9 10 10 10 11 12 12 12 12 12 12 13 13 13 12 12 13 13 13 12 12 12 12 12 13 13 13
20 20 18 19 17 16 17 16 13 13 14 14 14 14 14 13 12 10 9 9 9 10 10 10 11 11 11 12 13 13 13 13 13 13 13 13 13 12 13 13 13 13 13 13 13 13 13 13 13
18 19 19 18 16 17 18 18 15 14 15 15 15 15 14 13 12 11 10 10 10 11 11 11 11 12 12 13 13 14 14 14 14 13 13 13 13 12 12 13 13 13 13 13 13 13 13 13 13
17 19 20 17 17 18 19 19 16 16 16 16 15 15 15 15 13 12 12 11 11 11 11 11 11 11 12 13 13 13 14 14 13 13 13 13 12 12 11 12 13 13 13 14 13 13 14 13 12
18 19 20 19 18 19 20 20 18 17 16 16 16 16 15 15 14 13 12 12 12 12 12 11 11 11 12 12 12 13 13 14 14 14 14 13 12 12 12 12 13 13 13 14 13 13 13 14 12
19 17 17 18 22 25 20 24 19 19 17 16 15 16 16 16 14 13 13 13 12 12 12 11 11 11 11 12 13 13 13 14 14 14 14 13 12 12 12 12 13 13 13 13 13 12 12 12 13
17 16 17 19 25 24 22 26 19 17 16 15 15 14 14 14 14 13 13 12 12 12 12 12 12 12 11 12 12 13 13 14 14 14 14 13 13 12 12 12 12 13 12 11 11 11 12 11 11
15 17 18 20 26 27 27 25 19 17 16 16 15 14 13 13 13 13 12 12 12 12 12 12 12 12 11 12 12 12 13 13 14 15 14 14 13 13 12 12 12 12 11 11 10 10 10 10 9
17 23 26 25 26 24 30 25 18 15 15 15 15 14 14 13 13 13 12 12 12 12 13 13 12 12 12 12 12 12 13 14 14 14 14 14 13 13 13 12 12 12 10 10 9 10 10 10 10
18 22 24 30 27 25 29 25 17 15 15 15 14 14 13 13 13 13 12 12 12 12 12 12 12 12 12 12 12 13 13 14 14 13 13 13 14 13 12 12 11 11 10 9 9 10 10 10 10
18 24 19 28 34 29 26 21 16 15 16 15 15 14 14 13 13 13 12 12 12 13 13 12 12 12 13 12 13 14 14 13 13 13 13 13 13 12 12 12 12 11 10 10 10 10 10 10 10
18 17 23 25 29 31 27 31 21 18 17 16 16 16 16 15 14 13 13 13 12 13 13 13 12 12 13 13 13 14 14 13 13 13 13 13 13 13 12 12 12 11 11 10 10 10 9 10 9
21 23 23 23 23 27 30 23 20 21 22 20 18 17 19 18 16 15 14 14 13 13 13 13 13 13 13 13 14 14 13 13 13 13 13 13 13 12 12 11 11 11 11 11 10 10 10 10 10
18 21 19 23 27 27 25 24 19 21 23 25 19 17 18 20 17 16 14 14 14 14 13 13 13 13 13 14 14 13 13 13 14 14 13 13 13 12 12 12 12 12 12 11 11 11 10 10 10